Location: Asheville, NC
(35.6000°N, 82.5500°W)
Time: 00:22:46
(UTC-04:00)

Vanguard 1 Rocket - Pass Details

Date: 08 March 2018
Orbit: 653 x 4224 km, 34.3° (Epoch: 22 June)

Event Time Altitude Azimuth Distance (km) Brightness Sun altitude
Exits shadow 03:55:58 27° 203° (SSW) 5,879 11.1 -35.7°
Drops below altitude 10° 04:07:53 10° 173° (S) 6,664 11.6 -33.4°
Sets 04:13:28 0° 163° (SSE) 7,256 12.0 -32.4°
